This is the latest recevied weather packets stored in our database for station/object DG1ROH. If no packets are shown the sender has not sent any weather packets the latest 1 day(s).
| Time | Temp. | Humidity | Pressure | Rain* | Wind** | Luminosity | Snow |
|---|---|---|---|---|---|---|---|
| 1778041532 | 9.44° C | 94% | 1004.9 hPa | 3.81 mm | 0.89 m/s, 69° | 0 W/m² | - |
| 1778041410 | 9.44° C | 94% | 1004.9 hPa | 3.81 mm | 0.89 m/s, 22° | 0 W/m² | - |
| 1778041289 | 9.44° C | 94% | 1004.9 hPa | 4.06 mm | 1.34 m/s, 46° | 0 W/m² | - |
| 1778041170 | 9.44° C | 94% | 1004.9 hPa | 4.32 mm | 1.34 m/s, 34° | 0 W/m² | - |
| 1778041050 | 9.44° C | 94% | 1004.9 hPa | 4.32 mm | 1.34 m/s, 33° | 0 W/m² | - |
| 1778040930 | 9.44° C | 94% | 1004.9 hPa | 4.57 mm | 1.34 m/s, 80° | 0 W/m² | - |
| 1778040809 | 9.44° C | 94% | 1004.9 hPa | 4.57 mm | 1.34 m/s, 32° | 0 W/m² | - |
| 1778040690 | 9.44° C | 94% | 1004.9 hPa | 4.83 mm | 1.34 m/s, 46° | 0 W/m² | - |
| 1778040569 | 9.44° C | 94% | 1004.9 hPa | 5.08 mm | 1.34 m/s, 5° | 0 W/m² | - |
| 1778040449 | 9.44° C | 94% | 1004.9 hPa | 5.08 mm | 0.89 m/s, 30° | 0 W/m² | - |
| 1778040329 | 9.44° C | 94% | 1004.9 hPa | 5.08 mm | 1.34 m/s, 13° | 0 W/m² | - |
| 1778040209 | 9.44° C | 94% | 1005 hPa | 5.08 mm | 1.34 m/s, 49° | 0 W/m² | - |
| 1778039973 | 9.44° C | 94% | 1005 hPa | 5.33 mm | 1.34 m/s, 42° | 0 W/m² | - |
| 1778039854 | 9.44° C | 94% | 1004.9 hPa | 5.08 mm | 1.34 m/s, 22° | 0 W/m² | - |
| 1778039729 | 9.44° C | 94% | 1005 hPa | 5.08 mm | 1.34 m/s, 42° | 0 W/m² | - |
| 1778039609 | 9.44° C | 94% | 1005 hPa | 5.08 mm | 1.34 m/s, 24° | 0 W/m² | - |
| 1778039490 | 9.44° C | 94% | 1004.9 hPa | 5.08 mm | 1.34 m/s, 0° | 0 W/m² | - |
| 1778039369 | 9.44° C | 94% | 1004.9 hPa | 5.08 mm | 0.89 m/s, 0° | 0 W/m² | - |
| 1778039248 | 9.44° C | 94% | 1005 hPa | 5.08 mm | 0.89 m/s, 44° | 0 W/m² | - |
| 1778039125 | 9.44° C | 94% | 1005 hPa | 5.08 mm | 0.89 m/s, 38° | 0 W/m² | - |
| 1778039006 | 9.44° C | 94% | 1005.1 hPa | 5.08 mm | 0.89 m/s, 13° | 0 W/m² | - |
| 1778038886 | 9.44° C | 94% | 1005.1 hPa | 5.08 mm | 0.89 m/s, 38° | 0 W/m² | - |
| 1778038765 | 9.44° C | 94% | 1005.1 hPa | 5.08 mm | 0.89 m/s, 61° | 0 W/m² | - |
| 1778038644 | 9.44° C | 94% | 1005.1 hPa | 5.08 mm | 0.89 m/s, 350° | 0 W/m² | - |
| 1778038524 | 9.44° C | 93% | 1005.2 hPa | 5.08 mm | 0.89 m/s, 0° | 0 W/m² | - |
* Rain latest hour (hover to see other rain measurements)
** Current wind speed in m/s (hover to see current wind gust speed)